Time,TemperatureF,DewpointF,PressureIn,WindDirection,WindDirectionDegrees,WindSpeedMPH,WindSpeedGustMPH,Humidity,HourlyPrecipIn,Conditions,Clouds,dailyrainin,SoftwareType,DateUTC
2013-03-12 00:00:00,66.4,61.1,29.83,SSE,147,0.0,1.0,83,0.00,,---,0.00,VWS V14.01,2013-03-12 04:00:00,
2013-03-12 00:05:00,66.4,61.1,29.83,SE,141,0.0,2.0,83,0.00,,---,0.00,VWS V14.01,2013-03-12 04:05:00,
2013-03-12 00:10:00,66.6,61.3,29.83,SE,140,0.0,2.0,83,0.00,,---,0.00,VWS V14.01,2013-03-12 04:10:00,
2013-03-12 00:15:00,66.6,61.3,29.83,SSE,161,0.0,6.0,83,0.00,,---,0.00,VWS V14.01,2013-03-12 04:15:00,
2013-03-12 00:20:00,66.8,61.5,29.83,South,175,0.0,6.0,83,0.00,,---,0.00,VWS V14.01,2013-03-12 04:20:00,
2013-03-12 00:25:00,66.8,61.5,29.83,ESE,114,0.0,7.0,83,0.00,,---,0.00,VWS V14.01,2013-03-12 04:25:00,
2013-03-12 00:30:00,66.6,61.6,29.83,South,169,0.0,7.0,84,0.00,,---,0.00,VWS V14.01,2013-03-12 04:30:00,
2013-03-12 00:35:00,66.4,61.4,29.83,ESE,121,0.0,0.0,84,0.00,,---,0.00,VWS V14.01,2013-03-12 04:35:00,
2013-03-12 00:40:00,66.3,61.7,29.83,SE,124,0.0,0.0,85,0.00,,---,0.00,VWS V14.01,2013-03-12 04:40:00,
2013-03-12 00:45:00,66.0,61.7,29.82,SE,141,0.0,1.0,86,0.00,,---,0.00,VWS V14.01,2013-03-12 04:45:00,
2013-03-12 00:50:00,66.0,61.7,29.82,SE,143,0.0,1.0,86,0.00,,---,0.00,VWS V14.01,2013-03-12 04:50:00,
2013-03-12 00:55:00,66.0,61.7,29.82,SSE,148,0.0,3.0,86,0.00,,---,0.00,VWS V14.01,2013-03-12 04:55:00,
2013-03-12 01:00:00,65.8,61.5,29.81,ESE,117,0.0,0.0,86,0.00,,---,0.00,VWS V14.01,2013-03-12 05:00:00,
2013-03-12 01:05:00,65.8,61.5,29.81,SE,126,0.0,0.0,86,0.00,,---,0.00,VWS V14.01,2013-03-12 05:05:00,
2013-03-12 01:10:00,65.8,61.5,29.81,SE,130,0.0,0.0,86,0.00,,---,0.00,VWS V14.01,2013-03-12 05:10:00,
2013-03-12 01:15:00,65.8,61.5,29.80,SE,140,0.0,2.0,86,0.00,,---,0.00,VWS V14.01,2013-03-12 05:15:00,
2013-03-12 01:20:00,65.8,61.5,29.80,ESE,112,0.0,2.0,86,0.00,,---,0.00,VWS V14.01,2013-03-12 05:20:00,
2013-03-12 01:25:00,65.8,61.5,29.80,SE,127,0.0,2.0,86,0.00,,---,0.00,VWS V14.01,2013-03-12 05:25:00,
2013-03-12 01:30:00,65.8,61.8,29.79,SSE,155,4.0,4.0,87,0.00,,---,0.00,VWS V14.01,2013-03-12 05:30:00,
2013-03-12 01:36:00,66.0,61.7,29.79,SE,126,0.0,5.0,86,0.00,,---,0.00,VWS V14.01,2013-03-12 05:36:00,
2013-03-12 01:41:00,66.1,61.8,29.79,SSE,154,0.0,5.0,86,0.00,,---,0.00,VWS V14.01,2013-03-12 05:41:00,
2013-03-12 01:46:00,66.1,61.8,29.78,East,100,0.0,5.0,86,0.00,,---,0.00,VWS V14.01,2013-03-12 05:46:00,
2013-03-12 01:51:00,66.3,62.0,29.78,SE,145,0.0,6.0,86,0.00,,---,0.00,VWS V14.01,2013-03-12 05:51:00,
2013-03-12 01:56:00,66.3,62.0,29.78,NE,45,3.0,6.0,86,0.00,,---,0.00,VWS V14.01,2013-03-12 05:56:00,
2013-03-12 02:00:00,66.3,62.0,29.78,ESE,102,0.0,6.0,86,0.00,,---,0.00,VWS V14.01,2013-03-12 06:00:00,
2013-03-12 02:01:00,66.3,62.3,29.78,SE,138,0.0,6.0,87,0.00,,---,0.00,VWS V14.01,2013-03-12 06:01:00,
2013-03-12 02:06:00,66.3,62.3,29.78,ESE,104,0.0,6.0,87,0.00,,---,0.00,VWS V14.01,2013-03-12 06:06:00,
2013-03-12 02:11:00,66.3,62.0,29.78,ESE,119,0.0,6.0,86,0.00,,---,0.00,VWS V14.01,2013-03-12 06:11:00,
2013-03-12 02:16:00,66.3,62.0,29.78,SE,127,0.0,6.0,86,0.00,,---,0.00,VWS V14.01,2013-03-12 06:16:00,
2013-03-12 02:21:00,66.3,62.0,29.78,ESE,102,0.0,8.0,86,0.00,,---,0.00,VWS V14.01,2013-03-12 06:21:00,
2013-03-12 02:26:00,66.4,61.8,29.78,SSE,147,5.0,8.0,85,0.00,,---,0.00,VWS V14.01,2013-03-12 06:26:00,
2013-03-12 02:30:00,66.4,61.8,29.78,ESE,120,0.0,8.0,85,0.00,,---,0.00,VWS V14.01,2013-03-12 06:30:00,
2013-03-12 02:31:00,66.4,61.4,29.78,ESE,121,0.0,0.0,84,0.00,,---,0.00,VWS V14.01,2013-03-12 06:31:00,
2013-03-12 02:36:00,66.6,61.6,29.78,SE,126,1.0,3.0,84,0.00,,---,0.00,VWS V14.01,2013-03-12 06:36:00,
2013-03-12 02:41:00,66.6,61.6,29.78,ESE,120,0.0,5.0,84,0.00,,---,0.00,VWS V14.01,2013-03-12 06:41:00,
2013-03-12 02:46:00,66.6,61.3,29.77,SE,127,0.0,5.0,83,0.00,,---,0.00,VWS V14.01,2013-03-12 06:46:00,
2013-03-12 02:51:00,66.6,61.3,29.77,North,7,0.0,5.0,83,0.00,,---,0.00,VWS V14.01,2013-03-12 06:51:00,
2013-03-12 02:56:00,66.6,61.3,29.77,SE,140,0.0,5.0,83,0.00,,---,0.00,VWS V14.01,2013-03-12 06:56:00,
2013-03-12 03:00:00,66.8,61.1,29.77,SSE,160,4.0,7.0,82,0.00,,---,0.00,VWS V14.01,2013-03-12 07:00:00,
2013-03-12 03:01:00,66.8,61.1,29.77,SE,138,0.0,10.0,82,0.00,,---,0.00,VWS V14.01,2013-03-12 07:01:00,
2013-03-12 03:06:00,66.8,61.1,29.77,ESE,117,5.0,10.0,82,0.00,,---,0.00,VWS V14.01,2013-03-12 07:06:00,
2013-03-12 03:12:00,66.8,61.1,29.77,SE,141,0.0,10.0,82,0.00,,---,0.00,VWS V14.01,2013-03-12 07:12:00,
2013-03-12 03:17:00,66.6,60.9,29.76,ESE,121,0.0,10.0,82,0.00,,---,0.00,VWS V14.01,2013-03-12 07:17:00,
2013-03-12 03:21:00,66.8,60.8,29.76,South,179,3.0,10.0,81,0.00,,---,0.00,VWS V14.01,2013-03-12 07:21:00,
2013-03-12 03:26:00,66.8,60.8,29.76,SSE,150,0.0,10.0,81,0.00,,---,0.00,VWS V14.01,2013-03-12 07:26:00,
2013-03-12 03:30:00,66.8,60.8,29.76,SE,144,0.0,10.0,81,0.00,,---,0.00,VWS V14.01,2013-03-12 07:30:00,
2013-03-12 03:31:00,66.8,60.8,29.76,SE,134,2.0,6.0,81,0.00,,---,0.00,VWS V14.01,2013-03-12 07:31:00,
2013-03-12 03:36:00,66.8,60.8,29.76,South,169,2.0,6.0,81,0.00,,---,0.00,VWS V14.01,2013-03-12 07:36:00,
2013-03-12 03:41:00,66.8,60.8,29.76,SE,138,2.0,6.0,81,0.00,,---,0.00,VWS V14.01,2013-03-12 07:41:00,
2013-03-12 03:47:00,66.8,60.8,29.76,ESE,123,5.0,7.0,81,0.00,,---,0.00,VWS V14.01,2013-03-12 07:47:00,
2013-03-12 03:52:00,66.8,60.8,29.76,SSE,151,0.0,7.0,81,0.00,,---,0.00,VWS V14.01,2013-03-12 07:52:00,
2013-03-12 03:57:00,66.8,60.8,29.76,SE,126,0.0,7.0,81,0.00,,---,0.00,VWS V14.01,2013-03-12 07:57:00,
2013-03-12 04:00:00,66.8,60.8,29.76,SSE,157,0.0,7.0,81,0.00,,---,0.00,VWS V14.01,2013-03-12 08:00:00,
2013-03-12 04:02:00,66.8,60.8,29.76,SSE,157,0.0,0.0,81,0.00,,---,0.00,VWS V14.01,2013-03-12 08:02:00,
2013-03-12 04:07:00,66.8,60.4,29.76,SE,127,1.0,8.0,80,0.00,,---,0.00,VWS V14.01,2013-03-12 08:07:00,
2013-03-12 04:12:00,66.9,60.5,29.76,SE,144,0.0,8.0,80,0.00,,---,0.00,VWS V14.01,2013-03-12 08:12:00,
2013-03-12 04:17:00,66.9,60.5,29.76,SE,143,0.0,8.0,80,0.00,,---,0.00,VWS V14.01,2013-03-12 08:17:00,
2013-03-12 04:22:00,66.8,60.4,29.76,SE,130,0.0,8.0,80,0.00,,---,0.00,VWS V14.01,2013-03-12 08:22:00,
2013-03-12 04:27:00,66.8,60.4,29.76,ESE,117,1.0,8.0,80,0.00,,---,0.00,VWS V14.01,2013-03-12 08:27:00,
2013-03-12 04:30:00,66.9,60.5,29.76,SE,127,2.0,8.0,80,0.00,,---,0.00,VWS V14.01,2013-03-12 08:30:00,
2013-03-12 04:32:00,66.9,60.5,29.76,SE,126,0.0,2.0,80,0.00,,---,0.00,VWS V14.01,2013-03-12 08:32:00,
2013-03-12 04:37:00,66.9,60.5,29.76,ESE,112,0.0,2.0,80,0.00,,---,0.00,VWS V14.01,2013-03-12 08:37:00,
2013-03-12 04:42:00,66.9,60.9,29.76,SE,130,0.0,8.0,81,0.00,,---,0.00,VWS V14.01,2013-03-12 08:42:00,
2013-03-12 04:47:00,66.8,61.1,29.75,SE,130,1.0,8.0,82,0.00,,---,0.00,VWS V14.01,2013-03-12 08:47:00,
2013-03-12 04:52:00,66.4,61.4,29.75,South,169,3.0,8.0,84,0.00,,---,0.00,VWS V14.01,2013-03-12 08:52:00,
2013-03-12 04:57:00,66.3,61.7,29.75,SSE,147,0.0,8.0,85,0.00,,---,0.00,VWS V14.01,2013-03-12 08:57:00,
2013-03-12 05:00:00,66.3,61.7,29.77,SE,143,0.0,8.0,85,0.00,,---,0.00,VWS V14.01,2013-03-12 09:00:00,
2013-03-12 05:02:00,66.1,61.5,29.77,SSE,155,0.0,3.0,85,0.00,,---,0.00,VWS V14.01,2013-03-12 09:02:00,
2013-03-12 05:07:00,66.1,61.5,29.77,SE,134,0.0,3.0,85,0.00,,---,0.00,VWS V14.01,2013-03-12 09:07:00,
2013-03-12 05:13:00,66.1,61.5,29.77,SE,134,0.0,7.0,85,0.00,,---,0.00,VWS V14.01,2013-03-12 09:13:00,
2013-03-12 05:18:00,66.0,61.7,29.75,SE,138,0.0,7.0,86,0.00,,---,0.00,VWS V14.01,2013-03-12 09:18:00,
2013-03-12 05:22:00,66.0,61.7,29.75,SE,144,0.0,7.0,86,0.00,,---,0.00,VWS V14.01,2013-03-12 09:22:00,
2013-03-12 05:28:00,66.0,61.7,29.75,SE,133,0.0,7.0,86,0.00,,---,0.00,VWS V14.01,2013-03-12 09:28:00,
2013-03-12 05:30:00,66.0,61.7,29.76,SSE,168,0.0,7.0,86,0.00,,---,0.00,VWS V14.01,2013-03-12 09:30:00,
2013-03-12 05:33:00,66.0,61.7,29.76,SE,131,0.0,0.0,86,0.00,,---,0.00,VWS V14.01,2013-03-12 09:33:00,
2013-03-12 05:38:00,66.3,61.7,29.76,SE,141,1.0,11.0,85,0.00,,---,0.00,VWS V14.01,2013-03-12 09:38:00,
2013-03-12 05:43:00,66.3,61.7,29.76,ESE,117,1.0,11.0,85,0.00,,---,0.00,VWS V14.01,2013-03-12 09:43:00,
2013-03-12 05:48:00,66.3,62.0,29.76,SE,124,0.0,11.0,86,0.00,,---,0.00,VWS V14.01,2013-03-12 09:48:00,
2013-03-12 05:53:00,66.0,62.0,29.76,SSE,167,0.0,11.0,87,0.01,,---,0.01,VWS V14.01,2013-03-12 09:53:00,
2013-03-12 05:58:00,65.8,61.8,29.76,SSE,155,0.0,11.0,87,0.01,,---,0.01,VWS V14.01,2013-03-12 09:58:00,
2013-03-12 06:00:00,65.8,61.8,29.76,WSW,247,0.0,11.0,87,0.01,,---,0.01,VWS V14.01,2013-03-12 10:00:00,
2013-03-12 06:03:00,65.6,62.0,29.76,WSW,244,0.0,0.0,88,0.01,,---,0.01,VWS V14.01,2013-03-12 10:03:00,
2013-03-12 06:08:00,65.6,62.0,29.76,ESE,112,1.0,6.0,88,0.01,,---,0.01,VWS V14.01,2013-03-12 10:08:00,
2013-03-12 06:13:00,65.5,62.2,29.76,SSE,147,3.0,7.0,89,0.01,,---,0.01,VWS V14.01,2013-03-12 10:13:00,
2013-03-12 06:18:00,65.5,62.2,29.76,SE,140,0.0,7.0,89,0.01,,---,0.01,VWS V14.01,2013-03-12 10:18:00,
2013-03-12 06:23:00,65.3,62.3,29.76,SE,128,0.0,7.0,90,0.01,,---,0.01,VWS V14.01,2013-03-12 10:23:00,
2013-03-12 06:28:00,65.3,62.3,29.76,SSE,155,0.0,7.0,90,0.01,,---,0.01,VWS V14.01,2013-03-12 10:28:00,
2013-03-12 06:30:00,65.2,62.2,29.77,SSE,155,0.0,7.0,90,0.01,,---,0.01,VWS V14.01,2013-03-12 10:30:00,
2013-03-12 06:33:00,65.2,62.2,29.77,SSE,164,0.0,0.0,90,0.01,,---,0.01,VWS V14.01,2013-03-12 10:33:00,
2013-03-12 06:38:00,65.2,62.2,29.77,SE,134,0.0,3.0,90,0.01,,---,0.01,VWS V14.01,2013-03-12 10:38:00,
2013-03-12 06:43:00,65.2,62.2,29.77,South,171,0.0,3.0,90,0.01,,---,0.01,VWS V14.01,2013-03-12 10:43:00,
2013-03-12 06:48:00,65.2,62.2,29.77,ESE,117,0.0,3.0,90,0.01,,---,0.01,VWS V14.01,2013-03-12 10:48:00,
2013-03-12 06:53:00,65.0,62.3,29.77,ESE,116,0.0,3.0,91,0.01,,---,0.01,VWS V14.01,2013-03-12 10:53:00,
2013-03-12 06:58:00,65.0,62.3,29.77,SSE,150,0.0,3.0,91,0.01,,---,0.01,VWS V14.01,2013-03-12 10:58:00,
2013-03-12 07:00:00,65.0,62.3,29.78,SSE,150,0.0,3.0,91,0.01,,---,0.01,VWS V14.01,2013-03-12 11:00:00,
2013-03-12 07:03:00,65.2,62.2,29.78,SE,140,0.0,4.0,90,0.00,,---,0.01,VWS V14.01,2013-03-12 11:03:00,
2013-03-12 07:09:00,65.2,62.2,29.78,South,179,0.0,4.0,90,0.00,,---,0.01,VWS V14.01,2013-03-12 11:09:00,
2013-03-12 07:13:00,65.2,62.2,29.78,SW,216,0.0,4.0,90,0.00,,---,0.01,VWS V14.01,2013-03-12 11:13:00,
2013-03-12 07:18:00,65.2,62.2,29.79,South,169,0.0,4.0,90,0.00,,---,0.01,VWS V14.01,2013-03-12 11:18:00,
2013-03-12 07:23:00,65.2,62.5,29.79,South,169,0.0,4.0,91,0.00,,---,0.01,VWS V14.01,2013-03-12 11:23:00,
2013-03-12 07:28:00,65.0,62.6,29.79,SSE,154,0.0,4.0,92,0.00,,---,0.01,VWS V14.01,2013-03-12 11:28:00,
2013-03-12 07:30:00,64.8,62.4,29.79,SSE,154,0.0,4.0,92,0.00,,---,0.01,VWS V14.01,2013-03-12 11:30:00,
2013-03-12 07:33:00,64.7,62.6,29.79,SSE,155,0.0,0.0,93,0.00,,---,0.01,VWS V14.01,2013-03-12 11:33:00,
2013-03-12 07:39:00,64.5,62.7,29.79,SSE,155,0.0,0.0,94,0.01,,---,0.02,VWS V14.01,2013-03-12 11:39:00,
2013-03-12 07:44:00,64.3,62.5,29.79,ESE,119,0.0,0.0,94,0.01,,---,0.02,VWS V14.01,2013-03-12 11:44:00,
2013-03-12 07:49:00,64.2,62.7,29.79,SE,144,0.0,2.0,95,0.01,,---,0.02,VWS V14.01,2013-03-12 11:49:00,
2013-03-12 07:54:00,64.2,62.7,29.79,SE,144,0.0,2.0,95,0.01,,---,0.02,VWS V14.01,2013-03-12 11:54:00,
2013-03-12 07:59:00,64.0,62.8,29.79,South,182,0.0,2.0,96,0.01,,---,0.02,VWS V14.01,2013-03-12 11:59:00,
2013-03-12 08:00:00,64.0,62.8,29.79,South,182,0.0,2.0,96,0.01,,---,0.02,VWS V14.01,2013-03-12 12:00:00,
2013-03-12 08:04:00,64.0,62.8,29.79,SE,140,0.0,1.0,96,0.01,,---,0.02,VWS V14.01,2013-03-12 12:04:00,
2013-03-12 08:09:00,63.9,62.7,29.79,SE,134,0.0,1.0,96,0.01,,---,0.02,VWS V14.01,2013-03-12 12:09:00,
2013-03-12 08:14:00,63.9,63.0,29.79,SE,134,0.0,1.0,97,0.01,,---,0.02,VWS V14.01,2013-03-12 12:14:00,
2013-03-12 08:19:00,63.9,63.0,29.79,SE,127,3.0,3.0,97,0.01,,---,0.02,VWS V14.01,2013-03-12 12:19:00,
2013-03-12 08:24:00,63.9,63.0,29.79,SSW,202,0.0,3.0,97,0.02,,---,0.03,VWS V14.01,2013-03-12 12:24:00,
2013-03-12 08:29:00,63.9,63.0,29.79,SSE,164,0.0,3.0,97,0.02,,---,0.03,VWS V14.01,2013-03-12 12:29:00,
2013-03-12 08:30:00,63.9,63.0,29.80,SE,130,3.0,3.0,97,0.02,,---,0.03,VWS V14.01,2013-03-12 12:30:00,
2013-03-12 08:34:00,63.7,62.8,29.80,SSE,154,0.0,7.0,97,0.02,,---,0.03,VWS V14.01,2013-03-12 12:34:00,
2013-03-12 08:39:00,63.7,63.1,29.80,SE,143,0.0,7.0,98,0.02,,---,0.03,VWS V14.01,2013-03-12 12:39:00,
2013-03-12 08:44:00,63.7,63.1,29.79,SSE,154,0.0,7.0,98,0.02,,---,0.03,VWS V14.01,2013-03-12 12:44:00,
2013-03-12 08:49:00,63.7,63.1,29.79,SSE,164,0.0,7.0,98,0.02,,---,0.03,VWS V14.01,2013-03-12 12:49:00,
2013-03-12 08:54:00,63.7,63.1,29.79,SSE,162,0.0,7.0,98,0.02,,---,0.03,VWS V14.01,2013-03-12 12:54:00,
2013-03-12 08:59:00,63.7,63.1,29.79,SE,127,0.0,7.0,98,0.02,,---,0.03,VWS V14.01,2013-03-12 12:59:00,
2013-03-12 09:00:00,63.7,63.1,29.79,ESE,121,3.0,7.0,98,0.02,,---,0.03,VWS V14.01,2013-03-12 13:00:00,
2013-03-12 09:04:00,63.7,63.1,29.79,SE,136,0.0,3.0,98,0.01,,---,0.03,VWS V14.01,2013-03-12 13:04:00,
2013-03-12 09:09:00,63.7,63.4,29.79,SE,130,0.0,3.0,99,0.01,,---,0.03,VWS V14.01,2013-03-12 13:09:00,
2013-03-12 09:14:00,63.7,63.4,29.79,SSE,154,0.0,3.0,99,0.01,,---,0.03,VWS V14.01,2013-03-12 13:14:00,
2013-03-12 09:19:00,63.7,63.4,29.79,SSE,167,0.0,3.0,99,0.01,,---,0.03,VWS V14.01,2013-03-12 13:19:00,
2013-03-12 09:24:00,63.7,63.4,29.79,SSE,150,0.0,3.0,99,0.01,,---,0.03,VWS V14.01,2013-03-12 13:24:00,
2013-03-12 09:29:00,63.7,63.4,29.80,ESE,103,0.0,3.0,99,0.01,,---,0.03,VWS V14.01,2013-03-12 13:29:00,
2013-03-12 09:30:00,63.7,63.4,29.80,ESE,103,0.0,3.0,99,0.01,,---,0.03,VWS V14.01,2013-03-12 13:30:00,
2013-03-12 09:34:00,63.7,63.4,29.80,SE,134,0.0,0.0,99,0.00,,---,0.03,VWS V14.01,2013-03-12 13:34:00,
2013-03-12 09:39:00,63.7,63.4,29.80,SE,128,2.0,6.0,99,0.00,,---,0.03,VWS V14.01,2013-03-12 13:39:00,
2013-03-12 09:44:00,63.7,63.4,29.80,SSW,192,0.0,6.0,99,0.01,,---,0.04,VWS V14.01,2013-03-12 13:44:00,
2013-03-12 09:49:00,63.7,63.7,29.80,SSE,154,1.0,6.0,100,0.01,,---,0.04,VWS V14.01,2013-03-12 13:49:00,
2013-03-12 09:54:00,63.7,63.7,29.80,SE,140,0.0,6.0,100,0.01,,---,0.04,VWS V14.01,2013-03-12 13:54:00,
2013-03-12 10:00:00,63.7,63.7,29.81,SSE,147,0.0,6.0,100,0.01,,---,0.04,VWS V14.01,2013-03-12 14:00:00,
2013-03-12 10:05:00,63.7,63.7,29.81,SE,136,0.0,4.0,100,0.01,,---,0.04,VWS V14.01,2013-03-12 14:05:00,
2013-03-12 10:10:00,63.9,63.9,29.81,SSE,152,0.0,5.0,100,0.01,,---,0.04,VWS V14.01,2013-03-12 14:10:00,
2013-03-12 10:15:00,63.9,63.9,29.81,ESE,120,0.0,5.0,100,0.01,,---,0.04,VWS V14.01,2013-03-12 14:15:00,
2013-03-12 10:20:00,63.9,63.9,29.81,SE,143,0.0,6.0,100,0.01,,---,0.04,VWS V14.01,2013-03-12 14:20:00,
2013-03-12 10:25:00,64.0,64.0,29.81,ENE,68,0.0,6.0,100,0.01,,---,0.04,VWS V14.01,2013-03-12 14:25:00,
2013-03-12 10:30:00,64.2,64.2,29.82,ESE,116,0.0,6.0,100,0.01,,---,0.04,VWS V14.01,2013-03-12 14:30:00,
2013-03-12 10:35:00,64.2,64.2,29.82,SE,144,0.0,0.0,100,0.01,,---,0.04,VWS V14.01,2013-03-12 14:35:00,
2013-03-12 10:40:00,64.2,64.2,29.82,SE,144,0.0,5.0,100,0.01,,---,0.04,VWS V14.01,2013-03-12 14:40:00,
2013-03-12 10:45:00,64.3,64.3,29.82,ESE,104,6.0,6.0,100,0.01,,---,0.04,VWS V14.01,2013-03-12 14:45:00,
2013-03-12 10:50:00,64.3,64.3,29.82,South,189,0.0,6.0,100,0.01,,---,0.04,VWS V14.01,2013-03-12 14:50:00,
2013-03-12 10:55:00,64.3,64.3,29.82,SE,134,0.0,6.0,100,0.01,,---,0.04,VWS V14.01,2013-03-12 14:55:00,
2013-03-12 11:00:00,64.5,64.5,29.82,SE,137,0.0,0.0,100,0.01,,---,0.05,VWS V14.01,2013-03-12 15:00:00,
2013-03-12 11:05:00,64.5,64.5,29.82,SSE,161,0.0,1.0,100,0.01,,---,0.05,VWS V14.01,2013-03-12 15:05:00,
2013-03-12 11:10:00,64.5,64.5,29.82,ESE,119,0.0,1.0,100,0.01,,---,0.05,VWS V14.01,2013-03-12 15:10:00,
2013-03-12 11:15:00,64.5,64.5,29.82,SE,137,2.0,5.0,100,0.01,,---,0.05,VWS V14.01,2013-03-12 15:15:00,
2013-03-12 11:20:00,64.7,64.7,29.82,SE,138,0.0,5.0,100,0.01,,---,0.05,VWS V14.01,2013-03-12 15:20:00,
2013-03-12 11:25:00,64.7,64.7,29.82,SE,133,0.0,6.0,100,0.01,,---,0.05,VWS V14.01,2013-03-12 15:25:00,
2013-03-12 11:30:00,64.8,64.8,29.82,South,174,0.0,0.0,100,0.01,,---,0.05,VWS V14.01,2013-03-12 15:30:00,
2013-03-12 11:35:00,65.0,65.0,29.82,SE,137,0.0,2.0,100,0.01,,---,0.05,VWS V14.01,2013-03-12 15:35:00,
2013-03-12 11:40:00,65.2,65.2,29.82,ENE,68,0.0,2.0,100,0.01,,---,0.05,VWS V14.01,2013-03-12 15:40:00,
2013-03-12 11:45:00,65.3,65.3,29.83,ESE,114,0.0,2.0,100,0.01,,---,0.05,VWS V14.01,2013-03-12 15:45:00,
2013-03-12 11:50:00,65.3,65.3,29.83,SW,232,0.0,2.0,100,0.01,,---,0.05,VWS V14.01,2013-03-12 15:50:00,
2013-03-12 11:55:00,65.3,65.3,29.83,East,88,0.0,4.0,100,0.01,,---,0.05,VWS V14.01,2013-03-12 15:55:00,
2013-03-12 12:00:00,65.5,65.5,29.83,SE,134,0.0,0.0,100,0.00,,---,0.05,VWS V14.01,2013-03-12 16:00:00,
2013-03-12 12:05:00,65.6,65.6,29.83,SE,133,0.0,0.0,100,0.00,,---,0.05,VWS V14.01,2013-03-12 16:05:00,
2013-03-12 12:10:00,65.6,65.6,29.83,SSE,147,0.0,0.0,100,0.00,,---,0.05,VWS V14.01,2013-03-12 16:10:00,
2013-03-12 12:15:00,65.8,65.8,29.83,SSE,148,0.0,0.0,100,0.00,,---,0.05,VWS V14.01,2013-03-12 16:15:00,
2013-03-12 12:20:00,65.8,65.8,29.83,ESE,102,0.0,1.0,100,0.00,,---,0.05,VWS V14.01,2013-03-12 16:20:00,
2013-03-12 12:25:00,66.0,66.0,29.83,ESE,113,0.0,1.0,100,0.00,,---,0.05,VWS V14.01,2013-03-12 16:25:00,
2013-03-12 12:30:00,66.1,66.1,29.83,ESE,117,0.0,0.0,100,0.01,,---,0.06,VWS V14.01,2013-03-12 16:30:00,
2013-03-12 12:35:00,66.3,66.3,29.83,ESE,103,0.0,0.0,100,0.01,,---,0.06,VWS V14.01,2013-03-12 16:35:00,
2013-03-12 12:40:00,66.4,66.4,29.83,ESE,120,0.0,0.0,100,0.01,,---,0.06,VWS V14.01,2013-03-12 16:40:00,
2013-03-12 12:45:00,66.8,66.8,29.82,ESE,117,0.0,0.0,100,0.01,,---,0.06,VWS V14.01,2013-03-12 16:45:00,
2013-03-12 12:50:00,67.1,67.1,29.82,SSE,148,0.0,0.0,100,0.01,,---,0.06,VWS V14.01,2013-03-12 16:50:00,
2013-03-12 12:55:00,67.3,67.3,29.82,SW,229,0.0,0.0,100,0.01,,---,0.06,VWS V14.01,2013-03-12 16:55:00,
2013-03-12 13:00:00,67.3,67.3,29.82,South,184,0.0,0.0,100,0.01,,---,0.06,VWS V14.01,2013-03-12 17:00:00,
2013-03-12 13:05:00,67.1,67.1,29.82,East,100,0.0,2.0,100,0.01,,---,0.06,VWS V14.01,2013-03-12 17:05:00,
2013-03-12 13:11:00,67.4,67.4,29.82,SE,127,3.0,3.0,100,0.01,,---,0.06,VWS V14.01,2013-03-12 17:11:00,
2013-03-12 13:16:00,67.6,67.6,29.82,SE,130,0.0,3.0,100,0.01,,---,0.06,VWS V14.01,2013-03-12 17:16:00,
2013-03-12 13:21:00,67.9,67.9,29.82,SE,136,0.0,3.0,100,0.01,,---,0.06,VWS V14.01,2013-03-12 17:21:00,
2013-03-12 13:26:00,68.3,68.3,29.82,SE,141,0.0,3.0,100,0.01,,---,0.06,VWS V14.01,2013-03-12 17:26:00,
2013-03-12 13:30:00,68.3,68.0,29.81,SE,140,0.0,3.0,99,0.01,,---,0.06,VWS V14.01,2013-03-12 17:30:00,
2013-03-12 13:31:00,68.4,68.1,29.81,SE,140,0.0,0.0,99,0.00,,---,0.06,VWS V14.01,2013-03-12 17:31:00,
2013-03-12 13:36:00,68.3,67.7,29.81,SE,134,0.0,0.0,98,0.01,,---,0.07,VWS V14.01,2013-03-12 17:36:00,
2013-03-12 13:41:00,68.1,67.2,29.81,SSE,150,1.0,2.0,97,0.01,,---,0.07,VWS V14.01,2013-03-12 17:41:00,
2013-03-12 13:46:00,68.3,67.4,29.81,SSE,168,0.0,2.0,97,0.01,,---,0.07,VWS V14.01,2013-03-12 17:46:00,
2013-03-12 13:51:00,68.3,67.4,29.81,SW,233,0.0,2.0,97,0.01,,---,0.07,VWS V14.01,2013-03-12 17:51:00,
2013-03-12 13:56:00,68.4,67.2,29.81,WSW,239,0.0,2.0,96,0.01,,---,0.07,VWS V14.01,2013-03-12 17:56:00,
2013-03-12 14:00:00,68.4,67.2,29.81,West,260,0.0,2.0,96,0.01,,---,0.07,VWS V14.01,2013-03-12 18:00:00,
2013-03-12 14:01:00,68.3,66.8,29.81,West,265,0.0,2.0,95,0.01,,---,0.07,VWS V14.01,2013-03-12 18:01:00,
2013-03-12 14:06:00,68.1,66.3,29.81,West,280,0.0,2.0,94,0.01,,---,0.07,VWS V14.01,2013-03-12 18:06:00,
2013-03-12 14:11:00,68.1,66.3,29.81,West,280,0.0,2.0,94,0.01,,---,0.07,VWS V14.01,2013-03-12 18:11:00,
2013-03-12 14:16:00,68.3,66.2,29.80,West,275,0.0,2.0,93,0.01,,---,0.07,VWS V14.01,2013-03-12 18:16:00,
2013-03-12 14:21:00,68.4,65.7,29.80,West,268,0.0,4.0,91,0.01,,---,0.07,VWS V14.01,2013-03-12 18:21:00,
2013-03-12 14:27:00,68.4,65.7,29.80,West,272,0.0,4.0,91,0.01,,---,0.07,VWS V14.01,2013-03-12 18:27:00,
2013-03-12 14:30:00,68.4,65.0,29.80,NW,313,0.0,4.0,89,0.01,,---,0.07,VWS V14.01,2013-03-12 18:30:00,
2013-03-12 14:32:00,68.4,65.0,29.80,West,275,0.0,0.0,89,0.01,,---,0.07,VWS V14.01,2013-03-12 18:32:00,
2013-03-12 14:37:00,68.8,65.4,29.80,West,274,0.0,0.0,89,0.01,,---,0.07,VWS V14.01,2013-03-12 18:37:00,
2013-03-12 14:42:00,68.8,65.1,29.80,West,280,3.0,3.0,88,0.01,,---,0.07,VWS V14.01,2013-03-12 18:42:00,
2013-03-12 14:47:00,68.4,64.7,29.79,West,274,3.0,7.0,88,0.01,,---,0.07,VWS V14.01,2013-03-12 18:47:00,
2013-03-12 14:52:00,68.4,64.4,29.79,West,275,5.0,7.0,87,0.01,,---,0.07,VWS V14.01,2013-03-12 18:52:00,
2013-03-12 14:57:00,68.3,64.3,29.79,WSW,257,0.0,7.0,87,0.01,,---,0.07,VWS V14.01,2013-03-12 18:57:00,
2013-03-12 15:00:00,68.1,63.8,29.79,West,280,0.0,7.0,86,0.01,,---,0.07,VWS V14.01,2013-03-12 19:00:00,
2013-03-12 15:02:00,68.1,63.8,29.79,West,277,0.0,0.0,86,0.00,,---,0.07,VWS V14.01,2013-03-12 19:02:00,
2013-03-12 15:07:00,67.9,63.9,29.79,West,274,0.0,3.0,87,0.00,,---,0.07,VWS V14.01,2013-03-12 19:07:00,
2013-03-12 15:12:00,67.4,63.1,29.79,West,270,0.0,6.0,86,0.00,,---,0.07,VWS V14.01,2013-03-12 19:12:00,
2013-03-12 15:17:00,66.8,62.8,29.79,West,272,2.0,6.0,87,0.00,,---,0.07,VWS V14.01,2013-03-12 19:17:00,
2013-03-12 15:22:00,66.8,62.8,29.79,West,268,0.0,6.0,87,0.00,,---,0.07,VWS V14.01,2013-03-12 19:22:00,
2013-03-12 15:27:00,66.9,62.9,29.79,West,271,0.0,6.0,87,0.00,,---,0.07,VWS V14.01,2013-03-12 19:27:00,
2013-03-12 15:30:00,66.9,62.6,29.80,WSW,248,0.0,6.0,86,0.00,,---,0.07,VWS V14.01,2013-03-12 19:30:00,
2013-03-12 15:32:00,66.9,62.6,29.80,West,267,5.0,6.0,86,0.00,,---,0.07,VWS V14.01,2013-03-12 19:32:00,
2013-03-12 15:37:00,67.1,62.8,29.80,WSW,241,0.0,6.0,86,0.00,,---,0.07,VWS V14.01,2013-03-12 19:37:00,
2013-03-12 15:42:00,67.4,62.7,29.80,West,274,1.0,6.0,85,0.00,,---,0.07,VWS V14.01,2013-03-12 19:42:00,
2013-03-12 15:47:00,67.8,62.5,29.79,West,275,2.0,6.0,83,0.00,,---,0.07,VWS V14.01,2013-03-12 19:47:00,
2013-03-12 15:52:00,68.3,62.6,29.79,WNW,289,1.0,6.0,82,0.01,,---,0.08,VWS V14.01,2013-03-12 19:52:00,
2013-03-12 15:57:00,68.6,62.5,29.79,NNW,344,0.0,6.0,81,0.01,,---,0.08,VWS V14.01,2013-03-12 19:57:00,
2013-03-12 16:00:00,68.6,62.2,29.79,NNW,342,0.0,6.0,80,0.01,,---,0.08,VWS V14.01,2013-03-12 20:00:00,
2013-03-12 16:02:00,68.8,62.7,29.79,NW,322,0.0,0.0,81,0.01,,---,0.08,VWS V14.01,2013-03-12 20:02:00,
2013-03-12 16:08:00,68.9,62.1,29.79,WSW,253,0.0,1.0,79,0.01,,---,0.08,VWS V14.01,2013-03-12 20:08:00,
2013-03-12 16:13:00,68.6,61.5,29.79,West,272,0.0,7.0,78,0.01,,---,0.08,VWS V14.01,2013-03-12 20:13:00,
2013-03-12 16:18:00,68.6,61.5,29.79,West,272,0.0,7.0,78,0.01,,---,0.08,VWS V14.01,2013-03-12 20:18:00,
2013-03-12 16:23:00,68.4,60.9,29.79,West,272,2.0,7.0,77,0.01,,---,0.08,VWS V14.01,2013-03-12 20:23:00,
2013-03-12 16:28:00,68.4,60.9,29.79,West,268,0.0,7.0,77,0.01,,---,0.08,VWS V14.01,2013-03-12 20:28:00,
2013-03-12 16:30:00,68.6,61.5,29.79,West,268,0.0,7.0,78,0.01,,---,0.08,VWS V14.01,2013-03-12 20:30:00,
2013-03-12 16:33:00,68.6,61.5,29.79,West,272,0.0,5.0,78,0.01,,---,0.08,VWS V14.01,2013-03-12 20:33:00,
2013-03-12 16:38:00,68.6,61.5,29.79,WSW,239,0.0,5.0,78,0.01,,---,0.08,VWS V14.01,2013-03-12 20:38:00,
2013-03-12 16:43:00,68.6,61.5,29.79,WSW,239,0.0,5.0,78,0.01,,---,0.08,VWS V14.01,2013-03-12 20:43:00,
2013-03-12 16:48:00,68.6,61.5,29.79,WNW,285,5.0,5.0,78,0.01,,---,0.08,VWS V14.01,2013-03-12 20:48:00,
2013-03-12 16:53:00,68.4,61.3,29.79,West,275,5.0,6.0,78,0.01,,---,0.08,VWS V14.01,2013-03-12 20:53:00,
2013-03-12 16:58:00,68.1,60.6,29.79,West,264,1.0,7.0,77,0.01,,---,0.08,VWS V14.01,2013-03-12 20:58:00,
2013-03-12 17:00:00,68.1,61.0,29.80,West,270,2.0,7.0,78,0.01,,---,0.08,VWS V14.01,2013-03-12 21:00:00,
2013-03-12 17:03:00,68.1,60.6,29.80,West,270,0.0,7.0,77,0.00,,---,0.08,VWS V14.01,2013-03-12 21:03:00,
2013-03-12 17:08:00,67.8,60.3,29.80,WSW,257,0.0,10.0,77,0.00,,---,0.08,VWS V14.01,2013-03-12 21:08:00,
2013-03-12 17:14:00,67.9,60.1,29.80,WSW,253,0.0,10.0,76,0.00,,---,0.08,VWS V14.01,2013-03-12 21:14:00,
2013-03-12 17:19:00,67.8,59.6,29.80,West,268,0.0,10.0,75,0.00,,---,0.08,VWS V14.01,2013-03-12 21:19:00,
2013-03-12 17:24:00,67.8,59.2,29.80,WNW,285,0.0,10.0,74,0.00,,---,0.08,VWS V14.01,2013-03-12 21:24:00,
2013-03-12 17:29:00,67.6,59.0,29.80,West,270,0.0,10.0,74,0.00,,---,0.08,VWS V14.01,2013-03-12 21:29:00,
2013-03-12 17:30:00,67.6,59.4,29.80,West,272,3.0,10.0,75,0.00,,---,0.08,VWS V14.01,2013-03-12 21:30:00,
2013-03-12 17:34:00,67.4,58.8,29.80,West,274,0.0,6.0,74,0.00,,---,0.08,VWS V14.01,2013-03-12 21:34:00,
2013-03-12 17:39:00,67.4,58.8,29.80,West,264,0.0,6.0,74,0.00,,---,0.08,VWS V14.01,2013-03-12 21:39:00,
2013-03-12 17:44:00,67.4,58.8,29.81,West,268,0.0,6.0,74,0.00,,---,0.08,VWS V14.01,2013-03-12 21:44:00,
2013-03-12 17:49:00,67.3,58.7,29.81,West,275,2.0,6.0,74,0.00,,---,0.08,VWS V14.01,2013-03-12 21:49:00,
2013-03-12 17:54:00,67.3,58.4,29.81,West,267,0.0,6.0,73,0.00,,---,0.08,VWS V14.01,2013-03-12 21:54:00,
2013-03-12 17:59:00,67.3,58.7,29.82,West,265,0.0,6.0,74,0.00,,---,0.08,VWS V14.01,2013-03-12 21:59:00,
2013-03-12 18:00:00,67.3,58.7,29.82,West,265,0.0,6.0,74,0.00,,---,0.08,VWS V14.01,2013-03-12 22:00:00,
2013-03-12 18:04:00,67.3,58.4,29.82,SW,233,0.0,2.0,73,0.00,,---,0.08,VWS V14.01,2013-03-12 22:04:00,
2013-03-12 18:09:00,67.3,58.4,29.82,West,277,0.0,3.0,73,0.00,,---,0.08,VWS V14.01,2013-03-12 22:09:00,
2013-03-12 18:14:00,67.3,58.0,29.82,West,275,0.0,3.0,72,0.00,,---,0.08,VWS V14.01,2013-03-12 22:14:00,
2013-03-12 18:19:00,67.1,57.4,29.82,West,277,0.0,3.0,71,0.00,,---,0.08,VWS V14.01,2013-03-12 22:19:00,
2013-03-12 18:24:00,66.8,55.1,29.82,West,267,0.0,3.0,66,0.00,,---,0.08,VWS V14.01,2013-03-12 22:24:00,
2013-03-12 18:29:00,66.6,53.6,29.82,West,280,0.0,3.0,63,0.00,,---,0.08,VWS V14.01,2013-03-12 22:29:00,
2013-03-12 18:30:00,66.6,53.6,29.82,West,280,0.0,3.0,63,0.00,,---,0.08,VWS V14.01,2013-03-12 22:30:00,
2013-03-12 18:34:00,66.4,52.6,29.82,WSW,248,0.0,0.0,61,0.00,,---,0.08,VWS V14.01,2013-03-12 22:34:00,
2013-03-12 18:39:00,66.3,52.5,29.82,SW,233,0.0,0.0,61,0.00,,---,0.08,VWS V14.01,2013-03-12 22:39:00,
2013-03-12 18:44:00,66.1,51.8,29.83,SW,234,0.0,0.0,60,0.00,,---,0.08,VWS V14.01,2013-03-12 22:44:00,
2013-03-12 18:49:00,65.8,51.5,29.83,SW,234,0.0,0.0,60,0.00,,---,0.08,VWS V14.01,2013-03-12 22:49:00,
2013-03-12 18:54:00,65.6,51.4,29.83,SW,234,0.0,0.0,60,0.00,,---,0.08,VWS V14.01,2013-03-12 22:54:00,
2013-03-12 18:59:00,65.5,51.3,29.83,WSW,239,0.0,0.0,60,0.00,,---,0.08,VWS V14.01,2013-03-12 22:59:00,
2013-03-12 19:00:00,65.3,51.1,29.83,WSW,239,0.0,0.0,60,0.00,,---,0.08,VWS V14.01,2013-03-12 23:00:00,
2013-03-12 19:04:00,65.2,50.1,29.83,WNW,288,0.0,0.0,58,0.00,,---,0.08,VWS V14.01,2013-03-12 23:04:00,
2013-03-12 19:09:00,64.7,47.7,29.83,WNW,282,0.0,6.0,54,0.00,,---,0.08,VWS V14.01,2013-03-12 23:09:00,
2013-03-12 19:15:00,64.3,46.8,29.84,West,271,0.0,6.0,53,0.00,,---,0.08,VWS V14.01,2013-03-12 23:15:00,
2013-03-12 19:20:00,64.2,48.2,29.84,West,271,0.0,6.0,56,0.00,,---,0.08,VWS V14.01,2013-03-12 23:20:00,
2013-03-12 19:25:00,63.7,47.7,29.84,West,271,0.0,6.0,56,0.00,,---,0.08,VWS V14.01,2013-03-12 23:25:00,
2013-03-12 19:30:00,63.4,48.4,29.85,West,271,0.0,6.0,58,0.00,,---,0.08,VWS V14.01,2013-03-12 23:30:00,
2013-03-12 19:35:00,63.1,48.1,29.85,West,270,0.0,0.0,58,0.00,,---,0.08,VWS V14.01,2013-03-12 23:35:00,
2013-03-12 19:40:00,62.7,48.2,29.85,West,270,0.0,3.0,59,0.00,,---,0.08,VWS V14.01,2013-03-12 23:40:00,
2013-03-12 19:45:00,62.4,47.9,29.86,West,270,0.0,3.0,59,0.00,,---,0.08,VWS V14.01,2013-03-12 23:45:00,
2013-03-12 19:50:00,62.1,48.1,29.86,West,271,0.0,3.0,60,0.00,,---,0.08,VWS V14.01,2013-03-12 23:50:00,
2013-03-12 19:55:00,61.8,47.3,29.86,West,271,0.0,3.0,59,0.00,,---,0.08,VWS V14.01,2013-03-12 23:55:00,
2013-03-12 20:00:00,61.6,47.6,29.87,West,271,0.0,3.0,60,0.00,,---,0.08,VWS V14.01,2013-03-13 00:00:00,
2013-03-12 20:05:00,61.5,47.5,29.87,West,271,0.0,0.0,60,0.00,,---,0.08,VWS V14.01,2013-03-13 00:05:00,
2013-03-12 20:10:00,61.3,47.3,29.87,West,270,0.0,3.0,60,0.00,,---,0.08,VWS V14.01,2013-03-13 00:10:00,
2013-03-12 20:15:00,61.0,47.0,29.87,West,264,0.0,4.0,60,0.00,,---,0.08,VWS V14.01,2013-03-13 00:15:00,
2013-03-12 20:20:00,60.9,46.9,29.87,West,272,0.0,5.0,60,0.00,,---,0.08,VWS V14.01,2013-03-13 00:20:00,
2013-03-12 20:25:00,60.7,47.2,29.87,West,275,0.0,5.0,61,0.00,,---,0.08,VWS V14.01,2013-03-13 00:25:00,
2013-03-12 20:30:00,60.4,47.3,29.88,West,275,0.0,0.0,62,0.00,,---,0.08,VWS V14.01,2013-03-13 00:30:00,
2013-03-12 20:35:00,60.1,47.0,29.88,West,275,0.0,0.0,62,0.00,,---,0.08,VWS V14.01,2013-03-13 00:35:00,
2013-03-12 20:40:00,59.9,47.3,29.88,West,275,0.0,1.0,63,0.00,,---,0.08,VWS V14.01,2013-03-13 00:40:00,
2013-03-12 20:46:00,59.6,47.0,29.89,West,275,0.0,1.0,63,0.00,,---,0.08,VWS V14.01,2013-03-13 00:46:00,
2013-03-12 20:51:00,59.3,47.1,29.89,West,275,0.0,1.0,64,0.00,,---,0.08,VWS V14.01,2013-03-13 00:51:00,
2013-03-12 20:56:00,59.0,46.8,29.89,West,275,0.0,1.0,64,0.00,,---,0.08,VWS V14.01,2013-03-13 00:56:00,
2013-03-12 21:00:00,58.9,46.8,29.90,West,275,0.0,1.0,64,0.00,,---,0.08,VWS V14.01,2013-03-13 01:00:00,
2013-03-12 21:01:00,58.7,47.0,29.90,West,275,0.0,0.0,65,0.00,,---,0.08,VWS V14.01,2013-03-13 01:01:00,
2013-03-12 21:06:00,58.6,46.9,29.90,West,275,0.0,0.0,65,0.00,,---,0.08,VWS V14.01,2013-03-13 01:06:00,
2013-03-12 21:11:00,58.4,47.1,29.90,West,275,0.0,0.0,66,0.00,,---,0.08,VWS V14.01,2013-03-13 01:11:00,
2013-03-12 21:16:00,58.3,47.0,29.90,West,270,0.0,1.0,66,0.00,,---,0.08,VWS V14.01,2013-03-13 01:16:00,
2013-03-12 21:22:00,58.1,47.2,29.90,West,264,0.0,1.0,67,0.00,,---,0.08,VWS V14.01,2013-03-13 01:22:00,
2013-03-12 21:26:00,57.8,46.9,29.90,West,268,0.0,1.0,67,0.00,,---,0.08,VWS V14.01,2013-03-13 01:26:00,
2013-03-12 21:30:00,57.8,46.9,29.90,West,268,0.0,1.0,67,0.00,,---,0.08,VWS V14.01,2013-03-13 01:30:00,
2013-03-12 21:32:00,57.8,47.3,29.90,West,268,0.0,0.0,68,0.00,,---,0.08,VWS V14.01,2013-03-13 01:32:00,
2013-03-12 21:37:00,57.6,47.1,29.90,West,268,0.0,1.0,68,0.00,,---,0.08,VWS V14.01,2013-03-13 01:37:00,
2013-03-12 21:42:00,57.5,47.0,29.90,West,268,0.0,2.0,68,0.00,,---,0.08,VWS V14.01,2013-03-13 01:42:00,
2013-03-12 21:47:00,57.5,47.4,29.91,West,268,0.0,2.0,69,0.00,,---,0.08,VWS V14.01,2013-03-13 01:47:00,
2013-03-12 21:52:00,57.3,46.8,29.91,West,268,0.0,2.0,68,0.00,,---,0.08,VWS V14.01,2013-03-13 01:52:00,
2013-03-12 21:57:00,57.3,47.2,29.91,West,268,0.0,2.0,69,0.00,,---,0.08,VWS V14.01,2013-03-13 01:57:00,
2013-03-12 22:00:00,57.2,47.1,29.92,West,268,0.0,2.0,69,0.00,,---,0.08,VWS V14.01,2013-03-13 02:00:00,
2013-03-12 22:02:00,57.2,47.1,29.92,West,270,0.0,0.0,69,0.00,,---,0.08,VWS V14.01,2013-03-13 02:02:00,
2013-03-12 22:07:00,57.0,46.9,29.92,West,270,0.0,0.0,69,0.00,,---,0.08,VWS V14.01,2013-03-13 02:07:00,
2013-03-12 22:12:00,56.9,47.2,29.92,West,268,0.0,0.0,70,0.00,,---,0.08,VWS V14.01,2013-03-13 02:12:00,
2013-03-12 22:17:00,56.7,47.0,29.92,West,268,0.0,0.0,70,0.00,,---,0.08,VWS V14.01,2013-03-13 02:17:00,
2013-03-12 22:22:00,56.7,47.0,29.92,West,268,0.0,1.0,70,0.00,,---,0.08,VWS V14.01,2013-03-13 02:22:00,
2013-03-12 22:27:00,56.6,46.9,29.92,West,268,0.0,1.0,70,0.00,,---,0.08,VWS V14.01,2013-03-13 02:27:00,
2013-03-12 22:30:00,56.6,46.9,29.93,West,268,0.0,1.0,70,0.00,,---,0.08,VWS V14.01,2013-03-13 02:30:00,
2013-03-12 22:32:00,56.6,46.9,29.93,West,268,0.0,0.0,70,0.00,,---,0.08,VWS V14.01,2013-03-13 02:32:00,
2013-03-12 22:37:00,56.6,46.9,29.93,West,268,0.0,0.0,70,0.00,,---,0.08,VWS V14.01,2013-03-13 02:37:00,
2013-03-12 22:42:00,56.6,47.3,29.93,West,268,0.0,0.0,71,0.00,,---,0.08,VWS V14.01,2013-03-13 02:42:00,
2013-03-12 22:47:00,56.5,47.2,29.93,West,268,0.0,0.0,71,0.00,,---,0.08,VWS V14.01,2013-03-13 02:47:00,
2013-03-12 22:52:00,56.5,47.2,29.93,West,268,0.0,0.0,71,0.00,,---,0.08,VWS V14.01,2013-03-13 02:52:00,
2013-03-12 22:58:00,56.3,47.0,29.93,West,268,0.0,0.0,71,0.00,,---,0.08,VWS V14.01,2013-03-13 02:58:00,
2013-03-12 23:00:00,56.3,47.0,29.93,West,268,0.0,0.0,71,0.00,,---,0.08,VWS V14.01,2013-03-13 03:00:00,
2013-03-12 23:03:00,56.2,47.3,29.93,West,268,0.0,0.0,72,0.00,,---,0.08,VWS V14.01,2013-03-13 03:03:00,
2013-03-12 23:08:00,55.9,47.0,29.93,West,268,0.0,0.0,72,0.00,,---,0.08,VWS V14.01,2013-03-13 03:08:00,
2013-03-12 23:13:00,55.7,46.8,29.93,West,268,0.0,0.0,72,0.00,,---,0.08,VWS V14.01,2013-03-13 03:13:00,
2013-03-12 23:18:00,55.6,47.1,29.93,West,268,0.0,0.0,73,0.00,,---,0.08,VWS V14.01,2013-03-13 03:18:00,
2013-03-12 23:23:00,55.3,46.8,29.93,West,268,0.0,0.0,73,0.00,,---,0.08,VWS V14.01,2013-03-13 03:23:00,
2013-03-12 23:28:00,55.1,46.6,29.93,West,268,0.0,0.0,73,0.00,,---,0.08,VWS V14.01,2013-03-13 03:28:00,
2013-03-12 23:30:00,55.0,46.5,29.93,West,268,0.0,0.0,73,0.00,,---,0.08,VWS V14.01,2013-03-13 03:30:00,
2013-03-12 23:33:00,54.8,46.7,29.93,West,268,0.0,0.0,74,0.00,,---,0.08,VWS V14.01,2013-03-13 03:33:00,
2013-03-12 23:38:00,54.5,46.4,29.93,West,268,0.0,0.0,74,0.00,,---,0.08,VWS V14.01,2013-03-13 03:38:00,
2013-03-12 23:43:00,54.4,46.3,29.93,West,268,0.0,0.0,74,0.00,,---,0.08,VWS V14.01,2013-03-13 03:43:00,
2013-03-12 23:48:00,54.5,46.4,29.93,West,270,0.0,0.0,74,0.00,,---,0.08,VWS V14.01,2013-03-13 03:48:00,
2013-03-12 23:53:00,54.7,46.2,29.93,West,270,0.0,0.0,73,0.00,,---,0.08,VWS V14.01,2013-03-13 03:53:00,
2013-03-12 23:58:00,54.8,46.0,29.93,West,270,0.0,0.0,72,0.00,,---,0.08,VWS V14.01,2013-03-13 03:58:00,